Volver al catálogo

THORAD DELTA 1 DEB

ActivoLEO
NORAD 8170·DEBRIS·🇺🇸 United States

Lanzado Nov 15, 1974 desde Vandenberg Space Force Base

Loading…

Próximos Pases (próximas 24 horas)

TLE

ActualizadoSource: Space-Track

Época: Sep 14, 2026, 03:39 UTC

1 08170U 74089AL  26257.15250226  .00014745  00000-0  60132-2 0  9994
2 08170 101.6073 321.8662 0059017 165.9340 222.1345 14.26569160502684

Sigue THORAD DELTA 1 DEB en tiempo real con AllMySat

Download on the App Store